Total_Precipitation_Accumulation
4.08 4.33 4.25 4.27 4.01 4.25 4.63 4.84 4.39 4.37 4.12 3.97 3.74 3.46 3.45 3.17 2.89 2.77 2.87 2.91 2.73 2.68 2.96 3.17 3.09 3.08 3.15 2.92 2.64 2.32 2.12 2.09 1.91 1.67 1.50 1.49 1.44 1.33 1.28 1.17 1.14 1.05 0.98
3.60 3.76 3.72 3.84 3.73 3.87 4.06 4.12 4.07 4.39 4.33 4.15 3.75 3.41 3.29 3.28 3.10 2.89 3.08 3.11 3.02 2.74 2.83 3.27 3.55 3.57 3.67 3.54 3.22 2.84 2.53 2.30 2.02 1.71 1.56 1.54 1.49 1.46 1.52 1.52 1.55 1.23 1.06
3.26 3.29 3.38 3.45 3.54 3.48 3.61 3.65 3.69 4.00 4.09 4.00 3.77 3.45 3.27 3.29 3.17 3.11 3.03 3.11 3.04 2.98 2.91 3.07 3.40 3.53 3.84 4.05 3.90 3.42 3.04 2.61 2.17 1.77 1.51 1.45 1.43 1.34 1.39 1.46 1.52 1.34 1.19
2.75 2.89 2.85 2.85 2.97 2.98 3.14 3.43 3.48 3.74 4.03 4.12 4.07 3.67 3.54 3.48 3.23 3.24 3.09 3.10 3.40 3.08 3.26 3.42 3.42 3.36 3.79 4.28 4.52 4.38 3.88 3.11 2.45 2.03 1.74 1.58 1.52 1.43 1.37 1.40 1.41 1.38 1.24
2.63 2.73 2.83 2.89 2.58 2.67 2.87 2.79 3.25 3.55 3.90 3.98 3.54 3.59 3.38 3.29 3.28 3.04 3.09 3.01 3.25 3.34 3.52 3.52 3.53 3.41 3.81 4.64 5.28 5.51 5.00 4.02 3.21 2.69 2.41 2.20 1.94 1.63 1.49 1.48 1.45 1.42 1.33
2.72 2.80 2.66 2.49 2.28 2.52 2.91 3.09 3.58 3.65 3.60 3.61 3.05 3.28 3.09 2.76 2.87 3.03 2.90 2.99 3.05 2.86 3.19 3.57 3.80 3.29 3.65 4.35 4.92 5.44 5.69 5.30 4.48 3.70 3.31 3.04 2.75 2.22 1.70 1.52 1.52 1.50 1.42
2.83 2.89 2.61 2.78 2.44 2.50 2.68 2.84 3.20 3.42 3.37 3.34 3.66 3.73 3.24 2.74 2.74 2.68 2.57 2.85 2.88 2.87 3.28 3.79 3.95 3.75 3.32 3.12 3.28 4.02 5.05 5.78 5.70 4.91 4.31 3.83 3.45 2.84 2.19 1.82 1.59 1.50 1.52
2.75 2.56 2.73 2.54 2.51 2.76 2.80 2.95 3.22 3.35 3.30 3.38 3.60 3.96 3.68 3.56 3.01 2.26 2.47 2.61 2.72 2.97 2.99 3.15 3.51 3.82 3.44 3.43 2.64 2.69 3.66 4.60 5.53 5.59 4.87 4.06 3.72 3.40 2.91 2.47 2.11 1.80 1.67
2.55 2.61 2.56 2.64 2.84 2.55 2.81 3.02 3.06 3.33 3.45 3.31 3.29 3.73 3.72 3.62 3.11 2.45 2.28 2.35 2.58 2.90 2.91 3.03 2.82 3.09 3.34 3.69 3.40 2.67 2.75 3.09 4.18 5.34 5.43 4.63 3.83 3.26 3.05 2.97 2.78 2.37 2.03
2.43 2.44 2.57 2.90 3.07 2.80 3.02 2.59 2.77 3.15 3.40 3.34 3.35 3.11 2.95 3.03 3.23 3.08 2.61 2.34 2.46 2.59 2.68 2.69 2.79 3.05 3.25 3.57 3.54 2.68 2.08 2.17 2.94 4.22 5.12 5.05 4.40 3.60 3.23 3.31 3.66 3.60 3.04
2.84 2.51 2.51 2.80 3.00 3.00 3.11 2.94 3.18 2.99 2.94 2.98 3.09 3.08 3.02 2.86 2.65 2.84 2.87 2.68 2.53 2.23 2.18 2.24 2.42 2.60 2.67 3.05 3.36 2.60 2.12 2.08 2.26 2.88 3.54 4.02 4.13 3.91 3.62 3.74 4.37 4.79 4.63
2.82 2.57 2.56 2.90 2.94 2.97 3.15 3.04 3.02 2.90 2.93 2.96 2.85 2.75 3.03 3.02 2.81 2.89 2.65 2.60 2.51 2.02 1.85 1.93 2.01 2.14 2.31 2.60 2.56 2.39 2.41 2.42 2.23 2.20 2.31 2.57 3.01 3.35 3.67 3.94 4.36 4.85 5.14
2.40 2.51 2.66 3.01 2.96 2.95 2.93 3.01 2.95 2.97 3.06 3.09 2.94 2.76 2.76 2.79 2.83 2.84 2.78 2.42 2.28 2.01 1.98 1.87 1.84 2.09 2.27 2.78 2.95 2.73 2.60 2.74 2.35 2.05 1.95 1.93 2.04 2.33 2.69 3.13 3.70 4.27 4.78
2.38 2.48 2.64 2.61 2.60 2.69 2.59 2.91 2.74 2.72 2.86 2.92 2.76 3.11 2.99 2.60 2.76 2.83 2.96 3.16 2.91 2.56 2.45 2.27 2.17 2.35 2.62 2.88 3.23 3.06 2.59 2.47 2.13 1.98 1.88 1.80 1.80 1.83 1.94 2.13 2.44 2.87 3.27
2.30 2.42 2.46 2.52 2.56 2.56 2.61 2.84 2.76 2.78 2.97 2.81 2.78 3.21 3.00 2.62 2.62 2.70 2.91 3.26 3.53 3.11 2.74 2.64 2.64 2.69 2.80 2.84 3.02 2.74 2.48 2.41 2.13 1.91 1.84 1.82 1.80 1.72 1.68 1.69 1.76 1.93 2.12
2.12 2.28 2.35 2.45 2.52 2.48 2.57 2.75 2.61 2.80 2.89 2.79 2.81 2.90 2.83 2.61 2.66 2.74 2.93 3.17 3.46 3.39 2.91 2.61 2.81 2.85 2.74 2.52 2.82 2.69 2.42 2.33 2.04 1.84 1.67 1.63 1.67 1.73 1.75 1.75 1.71 1.74 1.79
2.11 2.24 2.35 2.42 2.43 2.47 2.62 2.72 2.57 2.73 2.72 2.83 2.76 2.71 2.67 2.89 2.96 2.79 2.96 3.09 3.33 3.56 3.28 2.81 2.90 2.91 2.80 2.56 2.53 2.46 2.34 2.30 2.09 2.03 1.79 1.67 1.60 1.59 1.60 1.64 1.73 1.77 1.75
2.21 2.30 2.41 2.49 2.40 2.49 2.65 2.59 2.58 2.65 2.70 2.69 2.79 2.98 2.91 3.09 3.11 3.06 3.25 3.25 3.34 3.59 3.50 3.16 3.02 3.06 2.92 2.76 2.66 2.44 2.09 2.00 2.00 2.17 1.98 1.81 1.71 1.65 1.59 1.55 1.54 1.52 1.51
2.36 2.34 2.32 2.39 2.54 2.72 2.74 2.58 2.57 2.57 2.48 2.40 2.57 2.85 3.15 3.62 3.47 3.29 3.18 3.11 3.15 3.22 3.45 3.19 2.93 3.13 2.97 2.84 2.78 2.43 2.14 2.09 1.77 1.85 1.89 1.75 1.60 1.47 1.40 1.38 1.36 1.33 1.29
2.37 2.43 2.50 2.52 2.60 2.63 2.60 2.60 2.64 2.65 2.60 2.46 2.47 2.58 2.76 3.06 3.23 3.37 3.15 3.05 3.14 3.23 3.36 3.26 3.16 3.37 3.42 3.23 3.01 2.62 2.43 2.28 2.01 1.69 1.73 1.63 1.53 1.43 1.36 1.30 1.27 1.26 1.26
2.46 2.66 2.72 2.68 2.67 2.63 2.45 2.65 2.80 2.67 2.75 2.65 2.57 2.50 2.34 2.46 2.66 2.85 2.71 3.02 3.21 3.17 3.24 3.28 3.38 3.74 3.73 3.51 2.97 2.70 2.60 2.48 2.20 1.83 1.78 1.56 1.47 1.35 1.31 1.34 1.31 1.27 1.24
2.98 3.03 2.89 2.83 2.76 2.51 2.69 2.76 2.80 2.81 2.89 2.80 2.68 2.61 2.42 2.26 2.24 2.38 2.45 2.67 2.93 2.96 3.03 3.20 3.28 3.46 3.51 3.45 3.22 2.93 2.69 2.54 2.25 1.96 1.96 1.80 1.62 1.51 1.38 1.28 1.41 1.41 1.37
3.09 3.10 3.16 3.11 2.98 3.06 3.08 2.75 2.71 2.70 2.72 2.68 2.83 2.90 2.45 2.07 2.28 2.23 2.31 2.31 2.24 2.39 2.59 2.81 2.97 3.02 3.34 3.47 3.50 3.07 2.89 2.70 2.33 2.15 2.19 2.00 1.87 1.67 1.44 1.36 1.49 1.37 1.36
3.02 2.98 2.93 2.86 2.80 2.79 2.89 2.62 2.56 2.43 2.45 2.45 2.47 2.48 2.45 2.28 2.21 2.22 2.19 2.04 1.88 1.88 2.02 2.08 2.18 2.46 2.83 3.33 3.65 3.40 3.27 3.07 2.70 2.35 2.18 2.03 1.88 1.74 1.53 1.45 1.52 1.39 1.31
2.92 2.88 2.86 2.87 2.75 2.70 2.75 2.54 2.52 2.32 2.27 2.19 2.16 2.15 2.16 2.03 2.10 2.07 1.97 1.90 1.83 1.73 1.75 1.84 1.81 1.95 2.27 2.68 3.20 3.43 3.17 2.84 2.50 2.18 2.09 1.97 1.78 1.85 1.80 1.65 1.57 1.62 1.43
3.07 3.05 3.00 2.99 2.90 2.82 2.94 2.68 2.55 2.31 2.26 2.25 2.33 2.29 2.25 2.07 2.06 1.95 1.78 1.78 1.64 1.54 1.66 1.66 1.60 1.62 1.74 2.08 2.59 2.77 2.89 2.75 2.43 2.15 1.84 1.89 1.83 1.96 1.99 1.70 1.53 1.53 1.48